| time (UTC) | temp F | wind direction | speed MPH | gust MPH | rain 1hr in | rain 24hr in | rain mn in | humidity % | barometer mb |
| 20260504050537 | 58 | 236 | 4.0 | 7.0 | 0.00 | 0.00 | 0.00 | 57 | 1005.1 |
| 20260504045531 | 58 | 210 | 2.0 | 4.0 | 0.00 | 0.04 | 0.04 | 57 | 1005.0 |
| 20260504045026 | 58 | 258 | 6.0 | 7.0 | 0.00 | 0.04 | 0.04 | 57 | 1005.0 |
| 20260504044524 | 59 | 244 | 4.0 | 8.0 | 0.00 | 0.04 | 0.04 | 57 | 1005.0 |
| 20260504044021 | 59 | 248 | 3.0 | 7.0 | 0.00 | 0.04 | 0.04 | 57 | 1005.1 |
| 20260504043518 | 59 | 180 | 4.0 | 6.0 | 0.00 | 0.04 | 0.04 | 57 | 1005.0 |
| 20260504043015 | 59 | 177 | 3.0 | 8.0 | 0.00 | 0.04 | 0.04 | 57 | 1005.0 |
| 20260504042512 | 59 | 189 | 3.0 | 7.0 | 0.00 | 0.04 | 0.04 | 57 | 1005.0 |
| 20260504042009 | 59 | 210 | 4.0 | 7.0 | 0.00 | 0.04 | 0.04 | 57 | 1005.0 |
| 20260504041505 | 59 | 237 | 2.0 | 4.0 | 0.00 | 0.04 | 0.04 | 57 | 1004.9 |
| 20260504041001 | 59 | 239 | 4.0 | 6.0 | 0.00 | 0.04 | 0.04 | 57 | 1004.9 |
| 20260504040458 | 60 | 227 | 4.0 | 7.0 | 0.00 | 0.04 | 0.04 | 56 | 1004.9 |
| 20260504035954 | 60 | 231 | 4.0 | 9.0 | 0.00 | 0.04 | 0.04 | 55 | 1004.9 |
| 20260504035452 | 60 | 239 | 2.0 | 6.0 | 0.00 | 0.04 | 0.04 | 55 | 1004.8 |
| 20260504034948 | 61 | 188 | 7.0 | 8.0 | 0.00 | 0.04 | 0.04 | 54 | 1004.8 |
| 20260504034446 | 61 | 186 | 5.0 | 8.0 | 0.00 | 0.04 | 0.04 | 54 | 1004.8 |
| 20260504033943 | 60 | 194 | 7.0 | 10.0 | 0.00 | 0.04 | 0.04 | 54 | 1004.9 |
| 20260504033441 | 60 | 164 | 1.0 | 7.0 | 0.00 | 0.04 | 0.04 | 56 | 1004.8 |
| 20260504032938 | 59 | 163 | 3.0 | 8.0 | 0.00 | 0.04 | 0.04 | 58 | 1004.7 |
| 20260504032434 | 59 | 186 | 4.0 | 6.0 | 0.00 | 0.04 | 0.04 | 59 | 1004.9 |
| 20260504031931 | 59 | 185 | 5.0 | 6.0 | 0.00 | 0.04 | 0.04 | 59 | 1005.0 |
| 20260504031428 | 59 | 168 | 3.0 | 4.0 | 0.00 | 0.04 | 0.04 | 59 | 1004.9 |
| 20260504030925 | 59 | 181 | 3.0 | 6.0 | 0.00 | 0.04 | 0.04 | 59 | 1004.9 |
| 20260504030422 | 59 | 183 | 4.0 | 4.0 | 0.00 | 0.04 | 0.04 | 58 | 1004.9 |
| 20260504025918 | 60 | 149 | 1.0 | 3.0 | 0.00 | 0.04 | 0.04 | 57 | 1005.1 |
| 20260504025415 | 61 | 180 | 2.0 | 4.0 | 0.00 | 0.04 | 0.04 | 55 | 1004.9 |
| 20260504024912 | 62 | 184 | 3.0 | 4.0 | 0.00 | 0.04 | 0.04 | 53 | 1005.1 |
| 20260504024409 | 62 | 188 | 4.0 | 6.0 | 0.00 | 0.04 | 0.04 | 52 | 1004.9 |
| 20260504023906 | 62 | 175 | 1.0 | 4.0 | 0.00 | 0.04 | 0.04 | 52 | 1005.0 |
| 20260504023402 | 63 | 166 | 1.0 | 7.0 | 0.00 | 0.04 | 0.04 | 51 | 1004.9 |
| 20260504022857 | 63 | 216 | 4.0 | 8.0 | 0.00 | 0.04 | 0.04 | 51 | 1005.0 |
| 20260504022354 | 63 | 184 | 3.0 | 8.0 | 0.00 | 0.04 | 0.04 | 51 | 1004.9 |
| 20260504021851 | 63 | 198 | 2.0 | 8.0 | 0.00 | 0.04 | 0.04 | 51 | 1004.8 |
| 20260504021348 | 63 | 188 | 6.0 | 9.0 | 0.00 | 0.04 | 0.04 | 51 | 1005.0 |
| 20260504020845 | 63 | 183 | 2.0 | 7.0 | 0.00 | 0.04 | 0.04 | 51 | 1004.7 |
| 20260504020342 | 63 | 213 | 4.0 | 6.0 | 0.00 | 0.04 | 0.04 | 50 | 1004.7 |
| 20260504015838 | 64 | 230 | 3.0 | 7.0 | 0.00 | 0.04 | 0.04 | 50 | 1004.7 |
| 20260504015334 | 64 | 239 | 6.0 | 8.0 | 0.00 | 0.04 | 0.04 | 49 | 1004.6 |
| 20260504014831 | 64 | 192 | 5.0 | 8.0 | 0.00 | 0.04 | 0.04 | 49 | 1004.6 |
| 20260504014326 | 64 | 206 | 6.0 | 9.0 | 0.00 | 0.04 | 0.04 | 49 | 1004.6 |
| 20260504013825 | 64 | 183 | 5.0 | 10.0 | 0.00 | 0.04 | 0.04 | 48 | 1004.6 |
| 20260504013322 | 65 | 197 | 3.0 | 9.0 | 0.00 | 0.04 | 0.04 | 48 | 1004.5 |
| 20260504012819 | 65 | 226 | 6.0 | 9.0 | 0.00 | 0.04 | 0.04 | 47 | 1004.4 |
| 20260504012316 | 65 | 194 | 5.0 | 9.0 | 0.00 | 0.04 | 0.04 | 47 | 1004.5 |
| 20260504011814 | 65 | 213 | 6.0 | 10.0 | 0.00 | 0.04 | 0.04 | 46 | 1004.5 |
| 20260504011310 | 66 | 219 | 5.0 | 9.0 | 0.00 | 0.04 | 0.04 | 46 | 1004.5 |
| 20260504010806 | 66 | 225 | 6.0 | 10.0 | 0.00 | 0.04 | 0.04 | 45 | 1004.4 |
| 20260504010301 | 66 | 217 | 4.0 | 6.0 | 0.00 | 0.04 | 0.04 | 45 | 1004.5 |
| 20260504005759 | 66 | 201 | 8.0 | 9.0 | 0.00 | 0.04 | 0.04 | 45 | 1004.4 |
| 20260504005255 | 66 | 225 | 6.0 | 13.0 | 0.00 | 0.04 | 0.04 | 45 | 1004.4 |
| 20260504004753 | 66 | 226 | 2.0 | 9.0 | 0.00 | 0.04 | 0.04 | 45 | 1004.4 |
| 20260504004250 | 66 | 150 | 2.0 | 7.0 | 0.00 | 0.04 | 0.04 | 45 | 1004.3 |
| 20260504003747 | 66 | 252 | 5.0 | 8.0 | 0.00 | 0.04 | 0.04 | 44 | 1004.4 |
| 20260504003244 | 67 | 236 | 5.0 | 7.0 | 0.00 | 0.04 | 0.04 | 44 | 1004.5 |
| 20260504002740 | 67 | 194 | 2.0 | 6.0 | 0.00 | 0.04 | 0.04 | 44 | 1004.3 |
| 20260504002237 | 67 | 231 | 3.0 | 7.0 | 0.00 | 0.04 | 0.04 | 43 | 1004.5 |
| 20260504001735 | 68 | 184 | 3.0 | 6.0 | 0.00 | 0.04 | 0.04 | 43 | 1004.5 |
| 20260504001232 | 68 | 192 | 2.0 | 8.0 | 0.00 | 0.04 | 0.04 | 42 | 1004.4 |
| 20260504000728 | 68 | 216 | 5.0 | 7.0 | 0.00 | 0.04 | 0.04 | 41 | 1004.4 |
| 20260504000226 | 68 | 232 | 5.0 | 9.0 | 0.00 | 0.04 | 0.04 | 41 | 1004.4 |
| 20260503235724 | 68 | 242 | 5.0 | 7.0 | 0.00 | 0.04 | 0.04 | 41 | 1004.4 |
| 20260503235220 | 69 | 215 | 3.0 | 9.0 | 0.00 | 0.04 | 0.04 | 41 | 1004.3 |
| 20260503234718 | 69 | 115 | 4.0 | 7.0 | 0.00 | 0.04 | 0.04 | 41 | 1004.4 |
| 20260503234216 | 69 | 169 | 3.0 | 7.0 | 0.00 | 0.04 | 0.04 | 40 | 1004.4 |
| 20260503233713 | 69 | 247 | 4.0 | 9.0 | 0.00 | 0.04 | 0.04 | 39 | 1004.6 |
| 20260503233208 | 69 | 253 | 6.0 | 9.0 | 0.00 | 0.04 | 0.04 | 39 | 1004.6 |
| 20260503232705 | 70 | 248 | 3.0 | 9.0 | 0.00 | 0.04 | 0.04 | 40 | 1004.4 |
| 20260503232203 | 70 | 263 | 4.0 | 9.0 | 0.00 | 0.04 | 0.04 | 39 | 1004.5 |
| 20260503231701 | 70 | 168 | 3.0 | 7.0 | 0.00 | 0.04 | 0.04 | 39 | 1004.7 |
| 20260503231157 | 70 | 244 | 6.0 | 14.0 | 0.00 | 0.04 | 0.04 | 40 | 1004.7 |
| 20260503230654 | 70 | 199 | 5.0 | 9.0 | 0.00 | 0.04 | 0.04 | 39 | 1004.7 |
| 20260503230151 | 69 | 281 | 6.0 | 10.0 | 0.00 | 0.04 | 0.04 | 39 | 1004.8 |
| 20260503225648 | 69 | 251 | 5.0 | 13.0 | 0.00 | 0.04 | 0.04 | 39 | 1004.7 |
| 20260503225148 | 69 | 303 | 6.0 | 9.0 | 0.00 | 0.04 | 0.04 | 39 | 1004.8 |
| 20260503224646 | 70 | 251 | 10.0 | 14.0 | 0.00 | 0.04 | 0.04 | 38 | 1004.7 |
| 20260503224143 | 69 | 167 | 6.0 | 9.0 | 0.00 | 0.04 | 0.04 | 39 | 1004.8 |
| 20260503223641 | 69 | 117 | 4.0 | 11.0 | 0.00 | 0.04 | 0.04 | 39 | 1004.8 |
| 20260503223137 | 70 | 255 | 5.0 | 15.0 | 0.00 | 0.04 | 0.04 | 39 | 1004.8 |
| 20260503222635 | 70 | 252 | 5.0 | 10.0 | 0.00 | 0.04 | 0.04 | 39 | 1004.7 |
| 20260503222132 | 70 | 212 | 5.0 | 9.0 | 0.00 | 0.04 | 0.04 | 38 | 1004.9 |
| 20260503221631 | 70 | 230 | 5.0 | 9.0 | 0.00 | 0.04 | 0.04 | 39 | 1004.9 |
| 20260503221128 | 69 | 164 | 4.0 | 8.0 | 0.00 | 0.04 | 0.04 | 39 | 1004.8 |
| 20260503220624 | 70 | 255 | 7.0 | 11.0 | 0.00 | 0.04 | 0.04 | 39 | 1004.8 |
| 20260503220121 | 70 | 247 | 10.0 | 11.0 | 0.00 | 0.04 | 0.04 | 38 | 1004.9 |
| 20260503215618 | 70 | 275 | 10.0 | 18.0 | 0.00 | 0.04 | 0.04 | 38 | 1004.8 |
| 20260503215114 | 70 | 260 | 8.0 | 11.0 | 0.00 | 0.04 | 0.04 | 39 | 1004.8 |
| 20260503214614 | 69 | 261 | 4.0 | 17.0 | 0.00 | 0.04 | 0.04 | 38 | 1004.6 |
| 20260503214109 | 69 | 274 | 8.0 | 14.0 | 0.00 | 0.04 | 0.04 | 38 | 1004.9 |
| 20260503213608 | 69 | 198 | 13.0 | 22.0 | 0.00 | 0.04 | 0.04 | 38 | 1005.0 |
| 20260503213104 | 69 | 170 | 10.0 | 19.0 | 0.00 | 0.04 | 0.04 | 38 | 1005.0 |
| 20260503212601 | 70 | 243 | 7.0 | 15.0 | 0.00 | 0.04 | 0.04 | 38 | 1005.0 |
| 20260503212059 | 70 | 214 | 5.0 | 11.0 | 0.00 | 0.04 | 0.04 | 39 | 1005.1 |
| 20260503211556 | 68 | 230 | 10.0 | 14.0 | 0.00 | 0.04 | 0.04 | 39 | 1005.2 |
| 20260503211051 | 69 | 223 | 12.0 | 15.0 | 0.00 | 0.04 | 0.04 | 38 | 1005.4 |
| 20260503210548 | 68 | 212 | 11.0 | 15.0 | 0.00 | 0.04 | 0.04 | 39 | 1005.3 |
| 20260503210044 | 68 | 245 | 7.0 | 15.0 | 0.00 | 0.04 | 0.04 | 40 | 1005.5 |
| 20260503205541 | 67 | 219 | 13.0 | 18.0 | 0.00 | 0.04 | 0.04 | 40 | 1005.5 |
| 20260503205037 | 68 | 203 | 8.0 | 17.0 | 0.00 | 0.04 | 0.04 | 39 | 1005.4 |
| 20260503204534 | 68 | 274 | 7.0 | 17.0 | 0.00 | 0.04 | 0.04 | 40 | 1005.7 |
| 20260503204031 | 67 | 177 | 7.0 | 11.0 | 0.00 | 0.04 | 0.04 | 42 | 1006.0 |
| 20260503203528 | 67 | 235 | 8.0 | 21.0 | 0.00 | 0.04 | 0.04 | 40 | 1006.1 |
| 20260503203025 | 66 | 176 | 7.0 | 18.0 | 0.00 | 0.04 | 0.04 | 42 | 1006.2 |
| 20260503202523 | 66 | 198 | 15.0 | 22.0 | 0.00 | 0.04 | 0.04 | 40 | 1006.3 |
| 20260503202021 | 67 | 202 | 12.0 | 24.0 | 0.00 | 0.04 | 0.04 | 40 | 1006.4 |
| 20260503201519 | 67 | 207 | 11.0 | 16.0 | 0.00 | 0.04 | 0.04 | 39 | 1006.4 |
| 20260503201016 | 66 | 184 | 10.0 | 18.0 | 0.00 | 0.04 | 0.04 | 40 | 1006.7 |
| 20260503200512 | 66 | 200 | 9.0 | 16.0 | 0.00 | 0.04 | 0.04 | 40 | 1006.7 |
| 20260503200009 | 64 | 204 | 14.0 | 19.0 | 0.00 | 0.04 | 0.04 | 42 | 1006.7 |
| 20260503195506 | 64 | 190 | 16.0 | 19.0 | 0.00 | 0.04 | 0.04 | 41 | 1006.9 |
| 20260503195002 | 64 | 224 | 11.0 | 21.0 | 0.00 | 0.04 | 0.04 | 41 | 1007.2 |
| 20260503194500 | 64 | 207 | 11.0 | 17.0 | 0.00 | 0.04 | 0.04 | 41 | 1007.1 |
| 20260503193955 | 64 | 244 | 11.0 | 18.0 | 0.00 | 0.04 | 0.04 | 40 | 1007.3 |
| 20260503193451 | 64 | 218 | 7.0 | 24.0 | 0.00 | 0.04 | 0.04 | 42 | 1007.5 |
| 20260503192946 | 63 | 202 | 9.0 | 13.0 | 0.00 | 0.04 | 0.04 | 41 | 1007.5 |
| 20260503192443 | 63 | 205 | 10.0 | 23.0 | 0.00 | 0.04 | 0.04 | 40 | 1007.6 |
| 20260503191938 | 63 | 216 | 15.0 | 22.0 | 0.00 | 0.04 | 0.04 | 41 | 1007.3 |
| 20260503191436 | 64 | 190 | 7.0 | 15.0 | 0.00 | 0.04 | 0.04 | 42 | 1007.4 |
| 20260503190932 | 63 | 224 | 15.0 | 24.0 | 0.00 | 0.04 | 0.04 | 43 | 1007.5 |
| 20260503190430 | 63 | 213 | 9.0 | 16.0 | 0.00 | 0.04 | 0.04 | 46 | 1007.5 |
| 20260503185927 | 63 | 239 | 14.0 | 24.0 | 0.00 | 0.04 | 0.04 | 49 | 1007.5 |
| 20260503185423 | 61 | 235 | 13.0 | 18.0 | 0.00 | 0.04 | 0.04 | 50 | 1007.8 |
| 20260503184922 | 61 | 143 | 9.0 | 22.0 | 0.00 | 0.04 | 0.04 | 53 | 1007.9 |
| 20260503184419 | 61 | 223 | 14.0 | 24.0 | 0.00 | 0.04 | 0.04 | 53 | 1007.9 |
| 20260503183916 | 61 | 174 | 16.0 | 19.0 | 0.00 | 0.04 | 0.04 | 55 | 1007.7 |
| 20260503183412 | 60 | 156 | 11.0 | 19.0 | 0.00 | 0.04 | 0.04 | 57 | 1008.0 |
| 20260503182909 | 59 | 194 | 15.0 | 23.0 | 0.00 | 0.04 | 0.04 | 59 | 1007.9 |
| 20260503182409 | 59 | 179 | 15.0 | 25.0 | 0.00 | 0.04 | 0.04 | 60 | 1007.9 |
| 20260503181905 | 58 | 182 | 17.0 | 25.0 | 0.00 | 0.04 | 0.04 | 59 | 1008.1 |
| 20260503181402 | 58 | 190 | 14.0 | 26.0 | 0.00 | 0.04 | 0.04 | 62 | 1008.2 |
| 20260503180858 | 57 | 182 | 10.0 | 23.0 | 0.00 | 0.04 | 0.04 | 66 | 1008.3 |
| 20260503180356 | 56 | 176 | 16.0 | 25.0 | 0.00 | 0.04 | 0.04 | 64 | 1008.4 |
| 20260503175853 | 55 | 166 | 18.0 | 30.0 | 0.00 | 0.04 | 0.04 | 65 | 1008.4 |
| 20260503175351 | 55 | 161 | 17.0 | 23.0 | 0.00 | 0.04 | 0.04 | 65 | 1008.6 |
| 20260503174846 | 55 | 174 | 12.0 | 24.0 | 0.00 | 0.04 | 0.04 | 67 | 1008.7 |
| 20260503174345 | 54 | 186 | 15.0 | 19.0 | 0.00 | 0.04 | 0.04 | 66 | 1008.8 |
| 20260503173839 | 54 | 165 | 14.0 | 24.0 | 0.00 | 0.04 | 0.04 | 66 | 1009.1 |
| 20260503173336 | 54 | 158 | 11.0 | 21.0 | 0.00 | 0.04 | 0.04 | 66 | 1009.1 |
| 20260503172833 | 54 | 170 | 15.0 | 24.0 | 0.00 | 0.04 | 0.04 | 65 | 1009.4 |
| 20260503172331 | 54 | 167 | 13.0 | 21.0 | 0.00 | 0.04 | 0.04 | 67 | 1009.5 |
| 20260503171826 | 54 | 155 | 10.0 | 16.0 | 0.00 | 0.04 | 0.04 | 72 | 1009.3 |
| 20260503171323 | 53 | 170 | 15.0 | 24.0 | 0.00 | 0.04 | 0.04 | 71 | 1009.3 |
| 20260503170821 | 52 | 168 | 11.0 | 17.0 | 0.00 | 0.04 | 0.04 | 76 | 1009.6 |
| 20260503170317 | 51 | 176 | 13.0 | 15.0 | 0.00 | 0.04 | 0.04 | 75 | 1009.9 |
| 20260503150709 | 49 | 155 | 3.0 | 8.0 | 0.07 | 0.03 | 0.03 | 80 | 1012.2 |
| 20260503150205 | 49 | 190 | 4.0 | 9.0 | 0.09 | 0.02 | 0.02 | 78 | 1012.5 |
| 20260503140130 | 54 | 190 | 7.0 | 10.0 | 0.00 | 0.00 | 0.00 | 56 | 1012.2 |
| 20260503131059 | 50 | 267 | 6.0 | 10.0 | 0.00 | 0.00 | 0.00 | 56 | 1013.3 |
| 20260503130556 | 50 | 242 | 8.0 | 10.0 | 0.00 | 0.00 | 0.00 | 57 | 1013.1 |
| 20260503110447 | 47 | 191 | 4.0 | 9.0 | 0.00 | 0.00 | 0.00 | 57 | 1012.3 |
| 20260503090338 | 49 | 223 | 5.0 | 11.0 | 0.00 | 0.00 | 0.00 | 49 | 1012.8 |
| 20260503081306 | 48 | 198 | 6.0 | 10.0 | 0.00 | 0.00 | 0.00 | 47 | 1013.3 |
| 20260503080802 | 48 | 224 | 4.0 | 8.0 | 0.00 | 0.00 | 0.00 | 47 | 1013.3 |
| 20260503080259 | 48 | 240 | 6.0 | 7.0 | 0.00 | 0.00 | 0.00 | 47 | 1013.3 |
| 20260503072735 | 49 | 232 | 4.0 | 9.0 | 0.00 | 0.00 | 0.00 | 45 | 1013.6 |
| 20260503072232 | 49 | 236 | 8.0 | 9.0 | 0.00 | 0.00 | 0.00 | 45 | 1013.5 |
| 20260503071729 | 49 | 170 | 4.0 | 8.0 | 0.00 | 0.00 | 0.00 | 44 | 1013.7 |
| 20260503071226 | 49 | 208 | 7.0 | 8.0 | 0.00 | 0.00 | 0.00 | 44 | 1013.5 |
| 20260503070722 | 49 | 178 | 3.0 | 7.0 | 0.00 | 0.00 | 0.00 | 44 | 1013.6 |
| 20260503070220 | 50 | 206 | 3.0 | 7.0 | 0.00 | 0.00 | 0.00 | 43 | 1013.7 |
| 20260503060145 | 46 | 164 | 2.0 | 3.0 | 0.00 | 0.00 | 0.00 | 49 | 1014.1 |
| 20260503054632 | 46 | 194 | 2.0 | 4.0 | 0.00 | 0.00 | 0.00 | 50 | 1014.3 |
| 20260503054129 | 47 | 189 | 2.0 | 3.0 | 0.00 | 0.00 | 0.00 | 50 | 1014.2 |
| 20260503053627 | 48 | 153 | 2.0 | 3.0 | 0.00 | 0.00 | 0.00 | 48 | 1014.4 |
| 20260503053126 | 48 | 175 | 3.0 | 3.0 | 0.00 | 0.00 | 0.00 | 48 | 1014.1 |
| 20260503052621 | 48 | 152 | 2.0 | 6.0 | 0.00 | 0.00 | 0.00 | 46 | 1014.4 |
| 20260503052118 | 49 | 206 | 4.0 | 6.0 | 0.00 | 0.00 | 0.00 | 45 | 1014.4 |